Regional Weather Roundup
Issued by NWS Burlington, VT

Home | Current Version | Previous Version | Text Only | Print | Product List | Glossary On
Versions: 1 2 3 4 5 6 7 8 9 10 11 12 13 14 15 16 17 18 19 20 21 22 23 24 25 26 27 28 29 30 31 32 33 34 35 36 37 38 39 40 41 42 43 44 45 46 47 48 49 50
000
ASUS41 KBTV 250210
RWRBTV
VERMONT REGIONAL WEATHER ROUNDUP
NATIONAL WEATHER SERVICE BURLINGTON VT
900 PM EST WED DEC 24 2014

NOTE: "FAIR" INDICATES FEW OR NO CLOUDS BELOW 12,000 FEET WITH NO
SIGNIFICANT WEATHER AND/OR OBSTRUCTIONS TO VISIBILITY.

* THESE REPORTS ARE NOT UNDER NWS QUALITY CONTROL AND/OR DO NOT
  REPORT WEATHER SUCH AS PRECIPITATION AND FOG.

VTZ001>019-250300-
_____VERMONT_____


CITY           SKY/WX    TMP DP  RH WIND       PRES   REMARKS
BURLINGTON     CLOUDY    45  42  89 SE14      29.47F
MONTPELIER     LGT RAIN  39  37  92 SW6       29.61F FOG
MORRISVILLE    LGT RAIN  40  37  89 VRB5      29.58F
ST. JOHNSBURY*   N/A     36  36 100 MISG      29.58F
LYNDONVILLE*   LGT RAIN  39  37  92 S5        29.60F
MIDDLEBURY*    DRZL/FOG  39  39 100 CALM      29.52S VSB 1/2
RUTLAND*       CLOUDY    45  39  81 SE24G31   29.55F
SPRINGFIELD    FOG       34  33  96 CALM      29.64F VSB 1/2
HIGHGATE*      CLOUDY    40  40  99 S5        29.44F FOG
NEWPORT*       DRIZZLE   38  37  97 S8        29.56F
BENNINGTON     CLOUDY    55  50  83 S9        29.56R

_____LAKE CHAMPLAIN_____


CITY           SKY/WX    TMP DP  RH WIND       PRES   REMARKS
COLCHESTER RF*   N/A     45  43  93 S28         N/A

$$

NYZ007-026>031-035-052-083-250300-
_____NORTHERN NEW YORK_____


CITY           SKY/WX    TMP DP  RH WIND       PRES   REMARKS
PLATTSBURGH    CLOUDY    41  41 100 SE18      29.45F
SARANAC LAKE   CLOUDY    46  45  96 SW5       29.38F
MASSENA        CLOUDY    37  36  96 NE9       29.41F FOG
POTSDAM*       FOG       43  43 100 CALM      29.39F VSB 1
WATERTOWN      CLOUDY    55  46  71 S6        29.37F
FT DRUM        MOCLDY    48  45  87 SE15      29.42F
ALBANY         DRIZZLE   46  43  89 S7        29.56F FOG
GLENS FALLS    FOG       38  36  92 CALM      29.55F VSB 1

$$
NHZ002-005-011-250300-
_____NEW HAMPSHIRE_____


CITY           SKY/WX    TMP DP  RH WIND       PRES   REMARKS
LEBANON        CLOUDY    35  33  92 S5        29.62F FOG
KEENE          CLOUDY    39  37  93 CALM      29.63F
MT WASHINGTON  RAIN      41  41 100 SW40G52     N/A  VSB 0
PLYMOUTH       RAIN      36  36 100 NE3       29.66F
WHITEFIELD     RAIN      37  36  96 CALM      29.60F VSB 3/4

$$

_____REGIONAL QUEBEC LOCATIONS_____


CITY           SKY/WX    TMP DP  RH WIND       PRES   REMARKS
MONTREAL       CLOUDY    41  41 100 E5        29.44R
QUEBEC CITY    LGT RAIN  36  34  93 NE13G18   29.60F FOG
SHERBROOKE     LGT RAIN  41  39  93 NE3       29.54F

_____REGIONAL ONTARIO LOCATIONS_____


CITY           SKY/WX    TMP DP  RH WIND       PRES   REMARKS
OTTAWA         FOG       37  37 100 NE6       29.40F VSB 3/4

______KEY______
VSB  - VISIBILITY IN MILES
WCI  - WIND CHILL INDEX
HX   - HEAT INDEX
$$
NNNN



USA.gov is the U.S. government's official web portal to all federal, state and local government web resources and services.